Location: Lafig�re
(44.4503°N, 4.0357°E)
Time: 15:43:13
(UTC+00:00)

Transit 2A Rocket - Pass Details

Date: 26 January 2021
Orbit: 594 x 908 km, 66.7° (Epoch: 06 March)

Event Time Altitude Azimuth Distance (km) Brightness Sun altitude
Rises 21:37:25 0° 307° (NW) 2,868 - -51.1°
Reaches altitude 10° 21:41:19 10° 272° (W) 1,933 - -51.7°
Maximum altitude 21:42:33 11° 255° (WSW) 1,856 - -51.9°
Drops below altitude 10° 21:43:47 10° 238° (WSW) 1,925 - -52.0°
Sets 21:47:38 0° 203° (SSW) 2,832 - -52.6°
